{"data":{"norad_id":58132,"epoch":"2026-05-25T01:03:15.303168Z","epoch_age_seconds":68465,"freshness":"FRESH","line1":"1 58132U 23162Q   26145.04392712  .00003437  00000+0  13439-3 0  9998","line2":"2 58132  43.0012  61.3348 0001474 264.3099  95.7585 15.27573841143971","mean_motion":15.27573841,"eccentricity":0.0001474,"inclination_deg":43.0012,"raan_deg":61.3348,"arg_perigee_deg":264.3099,"mean_anomaly_deg":95.7585,"bstar":0.00013439,"rev_number":14397,"period_min":94.267128786215,"perigee_km":482.05619681435,"apogee_km":484.07887991226,"semimajor_km":6861.2045383633,"source":"CELESTRAK","updated_at":"2026-05-25T13:38:18.533750Z"}}